Red Bluff, CA

8:08 PM PST on November 11, 2019 (GMT -0800)
Red Bluff Municipal

Weather History for KRBL - October, 2019

Change the Weather History Date:

Wednesday, October 23, 2019

  Actual Average Record
Temperature  
Mean Temperature 78 °F -  
Max Temperature 87 °F 74 °F 99 °F (1959)
Min Temperature 70 °F 49 °F 39 °F (1961)
Cooling Degree Days 14    
Growing Degree Days 28 (Base 50)    
Moisture  
Dew Point 29 °F    
Average Humidity 19    
Maximum Humidity 37    
Minimum Humidity 4    
Precipitation  
Precipitation 0.00 in - - ()
Sea Level Pressure  
Sea Level Pressure 30.06 in    
Wind  
Wind Speed 17 mph (NNW)    
Max Wind Speed 24 mph    
Max Gust Speed 33 mph    
Visibility 10 miles    
Events Rain    
Averages and records for this station are not official NWS values.
T = Trace of Precipitation, MM = Missing Value Source: NWS Daily Summary

Daily Weather History Graph

Daily Weather History Graph

Search for Another Location

Airport or City:

Astronomy

Oct. 23, 2019 Rise Set
Actual Time 7:28 AM PDT 6:17 PM PDT
Civil Twilight 7:00 AM PDT 6:45 PM PDT
Nautical Twilight 6:28 AM PDT 7:17 PM PDT
Astronomical Twilight 5:57 AM PDT 7:48 PM PDT
Moon 1:52 AM PDT (10/23) 4:12 PM PDT (10/23)
Length of Visible Light 11h 45m
Length of Day
10h 49m
Waning Crescent, 25% of the Moon is Illuminated
Oct 23
Waning Crescent
Oct 27
New
Nov 4
First Quarter
Nov 12
Full
Nov 19
Last Quarter

Hourly Weather History & Observations

Time (PDT) Temp. Dew Point Humidity Pressure Visibility Wind Dir Wind Speed Gust Speed Precip Events Conditions
12:54 AM 73.9 °F 46.0 °F 37% 30.08 in 10.0 mi NNW 12.7 mph - N/A   Clear
1:54 AM 73.9 °F 46.0 °F 37% 30.07 in 10.0 mi NNW 13.8 mph 24.2 mph N/A   Clear
2:54 AM 73.9 °F 46.0 °F 37% 30.06 in 10.0 mi NNW 18.4 mph 26.5 mph N/A   Clear
3:54 AM 73.0 °F 45.0 °F 37% 30.06 in 10.0 mi NNW 17.3 mph 27.6 mph N/A   Clear
4:54 AM 73.0 °F 43.0 °F 34% 30.05 in 10.0 mi North 19.6 mph 29.9 mph N/A   Clear
5:54 AM 72.0 °F 41.0 °F 33% 30.06 in 10.0 mi North 20.7 mph 27.6 mph N/A   Clear
6:54 AM 71.1 °F 39.0 °F 31% 30.06 in 10.0 mi NNW 20.7 mph 28.8 mph N/A   Clear
7:54 AM 70.0 °F 36.0 °F 29% 30.06 in 10.0 mi North 19.6 mph 27.6 mph N/A   Clear
8:54 AM 73.0 °F 32.0 °F 22% 30.09 in 10.0 mi North 20.7 mph 29.9 mph N/A   Clear
9:54 AM 75.0 °F 28.9 °F 18% 30.10 in 10.0 mi North 20.7 mph 33.4 mph N/A   Clear
10:54 AM 78.1 °F 26.1 °F 15% 30.10 in 10.0 mi North 24.2 mph 32.2 mph N/A   Clear
11:54 AM 81.0 °F 21.9 °F 11% 30.09 in 10.0 mi North 16.1 mph 26.5 mph 0.00 in Rain Light Rain
12:54 PM 84.0 °F 19.0 °F 9% 30.07 in 10.0 mi North 18.4 mph 25.3 mph 0.00 in Rain Light Rain
1:54 PM 86.0 °F 19.0 °F 8% 30.05 in 10.0 mi North 20.7 mph 26.5 mph 0.00 in Rain Light Rain
2:54 PM 87.1 °F 21.0 °F 9% 30.02 in 10.0 mi North 17.3 mph 27.6 mph 0.00 in Rain Light Rain
4:54 PM 86.0 °F 19.9 °F 9% 30.00 in 10.0 mi NNW 18.4 mph 31.1 mph 0.00 in Rain Light Rain
5:54 PM 82.9 °F 19.9 °F 10% 30.00 in 10.0 mi North 17.3 mph - 0.00 in Rain Light Rain
6:54 PM 80.1 °F 19.9 °F 11% 30.01 in 10.0 mi North 13.8 mph - 0.00 in Rain Light Rain
7:54 PM 78.1 °F 19.9 °F 11% 30.04 in 10.0 mi North 12.7 mph - 0.00 in Rain Light Rain
8:54 PM 75.9 °F 19.9 °F 12% 30.05 in 10.0 mi North 12.7 mph - 0.00 in Rain Light Rain
9:54 PM 75.9 °F 21.0 °F 13% 30.06 in 10.0 mi North 13.8 mph 23.0 mph 0.00 in Rain Light Rain
10:54 PM 73.9 °F 21.0 °F 14% 30.08 in 10.0 mi North 11.5 mph - 0.00 in Rain Light Rain
11:54 PM 71.1 °F 21.9 °F 16% 30.09 in 10.0 mi NW 10.4 mph - 0.00 in Rain Light Rain